Regional Weather Roundup
Issued by NWS

Home | Current Version | Previous Version | Text Only | Print | Product List | Glossary On
Versions: 1 2 3 4 5 6 7 8 9 10 11 12 13 14 15 16 17 18 19 20 21 22 23 24 25 26 27 28 29 30 31 32 33 34 35 36 37 38 39 40 41 42 43 44 45 46 47 48 49 50
000
ASUS43 KMKX 242059
RWRWI

WISCONSIN REGIONAL WEATHER ROUNDUP
NATIONAL WEATHER SERVICE MILWAUKEE/SULLIVAN WI
400 PM CDT THU JUL 24 2014

NOTE: "FAIR" INDICATES FEW OR NO CLOUDS BELOW 12,000 FEET WITH NO
SIGNIFICANT WEATHER AND/OR OBSTRUCTIONS TO VISIBILITY.

WIZ001-002-006>008-014>016-023>028-242200-
NORTHWEST WISCONSIN

CITY           SKY/WX    TMP DP  RH WIND       PRES   REMARKS
SUPERIOR ARPT  PTSUNNY   72  60  65 NE6       30.02F
ASHLAND        CLOUDY    75  58  55 VRB5      30.04F
HAYWARD        CLOUDY    77  50  38 SW9       30.07S
SIREN          PTSUNNY   78  52  40 SW8       30.06S
RICE LAKE      PTSUNNY   77  50  38 SW9       30.09R
LADYSMITH      MOSUNNY   76  52  42 S6        30.09S
EAU CLAIRE     NOT AVBL
MENOMONIE      MOCLDY    80  51  36 SW8       30.08R
NEW RICHMOND   PTSUNNY   77  57  49 SW8       30.08R
OSCEOLA        CLOUDY    78  56  46 S6        30.09F
$$

WIZ003>005-009-010-017-018-242200-
NORTH CENTRAL WISCONSIN

CITY           SKY/WX    TMP DP  RH WIND       PRES   REMARKS
WOODRUFF       PTSUNNY   77  52  41 NW7       30.08S
RHINELANDER    MOSUNNY   75  49  39 SW3       30.09S
EAGLE RIVER    MOSUNNY   71  45  38 W6        30.08S
LAND O LAKES   MOSUNNY   75  46  34 SW8       30.08F
PHILLIPS       CLOUDY    74  51  44 CALM      30.07S
TOMAHAWK       PTSUNNY   71  51  49 CALM      30.08F
MEDFORD        MOSUNNY   74  53  47 W5        30.08S
MERRILL        MOSUNNY   75  53  45 W12       30.08S
$$

WIZ029-030-035-036-043>047-242200-
CENTRAL WISCONSIN

CITY           SKY/WX    TMP DP  RH WIND       PRES   REMARKS
WAUSAU         SUNNY     77  49  37 W8        30.06F
MOSINEE        PTSUNNY   75  48  38 SW5       30.09F
MARSHFIELD     MOSUNNY   77  51  40 VRB6      30.08S
STEVENS POINT  MOSUNNY   76  49  37 W8        30.08S
WAUPACA        PTSUNNY   80  47  31 S6        30.07F HX  80
WAUTOMA        NOT AVBL
WISC RAPIDS    MOSUNNY   79  50  36 W9        30.08F
CAMP DOUGLAS   NOT AVBL
$$

WIZ011>013-019>022-031-037>040-048>050-242200-
NORTHEAST WISCONSIN

CITY           SKY/WX    TMP DP  RH WIND       PRES   REMARKS
ANTIGO         MOSUNNY   72  51  48 W5        30.09S
STURGEON BAY   SUNNY     70  46  43 S13G20    30.08F
GREEN BAY      SUNNY     77  51  40 W8        30.07F
MANITOWOC      NOT AVBL
APPLETON       PTSUNNY   75  50  41 SE8       30.08F
CLINTONVILLE   PTSUNNY   79  46  31 S12G17    30.06F
OSHKOSH        SUNNY     75  54  47 E7        30.07F
$$

WIZ032>034-041-042-053>061-242200-
SOUTHWEST WISCONSIN

CITY           SKY/WX    TMP DP  RH WIND       PRES   REMARKS
LA CROSSE      MOSUNNY   81  55  40 W9        30.07R HX  81
SPARTA         PTSUNNY   76  50  39 S3        30.08R
VIROQUA        FAIR      75  54  46 CALM      30.09R
BOSCOBEL       PTSUNNY   82  54  37 W5        30.08R HX  81
PRAIRIE DU CHI MOSUNNY   79  52  38 S8        30.07R
PLATTEVILLE    FAIR      77  54  44 S8        30.10S
$$

WIZ056-057-062-063-064-067-068-242200-
SOUTH CENTRAL WISCONSIN

CITY           SKY/WX    TMP DP  RH WIND       PRES   REMARKS
BARABOO/DELLS  SUNNY     78  47  33 SW6       30.09S
LONE ROCK      NOT AVBL
WATERTOWN      CLOUDY    75  52  45 CALM      30.08F
MADISON        PTSUNNY   77  54  44 S5        30.09F
MIDDLETON      FAIR      79  50  36 S3        30.08F
MONROE         CLOUDY    73  54  49 E3        30.09F
JANESVILLE     MOSUNNY   79  48  34 NE5       30.08F
$$

WIZ051-052-058>065-066-070>072-242200-
SOUTHEAST WISCONSIN

CITY           SKY/WX    TMP DP  RH WIND       PRES   REMARKS
MILWAUKEE      MOSUNNY   69  43  38 E10       30.11F
WAUKESHA       MOSUNNY   72  46  40 SE7       30.13S
MILWAUKEE/TIMM SUNNY     72  39  30 SE10      30.11F
RACINE         SUNNY     69  47  45 E8        30.13F
BURLINGTON     SUNNY     73  50  45 SW3       30.10F
KENOSHA        SUNNY     72  46  39 E9        30.11F
FOND DU LAC    PTSUNNY   74  52  46 VRB3      30.08F
SHEBOYGAN      SUNNY     71  45  39 SE9       30.09F
WEST BEND      MOSUNNY   72  45  37 SE9       30.09F
JUNEAU         MOSUNNY   73  45  36 CALM      30.09F
$$

LSZ147-162-242200-
LAKE SUPERIOR

STATION/POSITION TIME  TEMP    WIND        PRES    WAVE
                       AIR SEA DIR/SP/G            HT/PER
                 (UTC) (F)     (DEG/KT/KT) (MB)    (FT/S)
$$

LMZ867-665-643>646-242200-
LAKE MICHIGAN

STATION/POSITION TIME  TEMP    WIND        PRES    WAVE
                       AIR SEA DIR/SP/G            HT/PER
                 (UTC) (F)     (DEG/KT/KT) (MB)    (FT/S)
$$

TC  - TEMPERATURE IN CELSIUS
VSB - VISIBILITY IN STATUTE MILES
WCI - WIND CHILL INDEX
HX  - HEAT INDEX




USA.gov is the U.S. government's official web portal to all federal, state and local government web resources and services.